Regional Weather Roundup
Issued by NWS

Home | Current Version | Previous Version | Text Only | Print | Product List | Glossary On
Versions: 1 2 3 4 5 6 7 8 9 10 11 12 13 14 15 16 17 18 19 20 21 22 23 24 25 26 27 28 29 30 31 32 33 34 35 36 37 38 39 40 41 42 43 44 45 46 47 48 49 50
000
ASUS44 KLIX 010812
RWRLA
LOUISIANA WEATHER ROUNDUP
NATIONAL WEATHER SERVICE NEW ORLEANS LA
300 AM CDT SAT AUG 01 2015

NOTE: "FAIR" INDICATES FEW OR NO CLOUDS BELOW 12,000 FEET WITH NO
      SIGNIFICANT WEATHER AND/OR OBSTRUCTIONS TO VISIBILITY.
      SKY/WX - SKY CONDITION AND SIGNIFICANT WEATHER.
      TMP - AIR TEMPERATURE.    DP   - DEWPOINT TEMPERATURE.
      RH  - RELATIVE HUMIDITY.  PRES - PRESSURE.
      HX  - HEAT INDEX.         WCI  - WIND CHILL INDEX.

*  THESE STATIONS ARE NOT NWS OR FAA STATIONS AND ARE NOT UNDER
   NWS QUALITY CONTROL.

LAZ040-048-061>063-065-066-069-010900-
SOUTHEAST LOUISIANA

CITY           SKY/WX    TMP DP  RH WIND       PRES   REMARKS
N.O. AUDUBON   NOT AVBL
N.O. INTL ARPT PTCLDY    83  63  50 NE12      29.91S
N.O. LAKEFRONT CLEAR     83  66  56 NE13      29.92R
N.O. DOWNTOWN* FAIR      82  66  57 NE6       29.92F
RESERVE*         N/A     73  70  88 CALM      29.92F
SLIDELL        CLEAR     70  67  90 CALM      29.92R
BATON ROUGE    CLEAR     73  64  73 CALM      29.94R
BOOTHVILLE     LGT RAIN  79  75  87 NW3       29.90F
BELLE CHASSE   CLEAR     73  70  90 CALM      29.91S
BOGALUSA*        N/A     71  64  77 CALM      29.94S
GALLIANO*      NOT AVBL
NEW ROADS*     FAIR     N/A N/A N/A N3        29.94S
GONZALES*      FAIR      76  64  65 NE3       29.92R
HAMMOND*       CLEAR     72  61  68 CALM      29.95R
HOUMA*         PTCLDY    75  71  86 N6        29.91F
PORT FOURCHON* SUNNY     81  75  83 CALM      29.90F

$$

LAZ041-044-053-054-010900-
SOUTHWEST LOUISIANA

CITY           SKY/WX    TMP DP  RH WIND       PRES   REMARKS
LAKE CHARLES   CLEAR     76  65  68 NE9       29.93F
LAFAYETTE      CLEAR     73  66  78 NE6       29.94R
PATTERSON      CLEAR     75  70  83 NE3       29.94R
SALT POINT       N/A     77  71  82 MISG      29.90S
NEW IBERIA     CLEAR     76  67  73 NE8       29.94R
CHENAULT AIRPK CLEAR     73  64  73 N7        29.94S

$$

LAZ027-028-010900-
CENTRAL LOUISIANA

CITY           SKY/WX    TMP DP  RH WIND       PRES   REMARKS
FORT POLK      CLEAR     78  64  62 N5        29.95F
ALEXANDRIA INT CLEAR     76  66  71 NE8       29.94F
ALEXANDRIA     CLEAR     75  66  73 CALM      29.96F

$$

LAZ001-002-010900-
NORTHWEST LOUISIANA

CITY           SKY/WX    TMP DP  RH WIND       PRES   REMARKS
SHREVEPORT     PTCLDY    77  64  64 E7        29.99S
BARKSDALE AFB  CLEAR     73  64  73 NE6       29.99S
DTN SHREVEPORT CLEAR     75  65  70 NE3       29.99F

$$

LAZ014-016-010900-
NORTHEAST LOUISIANA

CITY           SKY/WX    TMP DP  RH WIND       PRES   REMARKS
MONROE         PTCLDY    74  67  78 CALM      29.98F
TALLULAH       CLEAR     76  68  76 NE9       29.97S

$$



USA.gov is the U.S. government's official web portal to all federal, state and local government web resources and services.